User: anonymous   Login
Location: Newark
(55.7681°N, 37.7103°E)
Time: 08:22:51
(UTC+00:00)
Language:

CUBESAT XI-V - Orbit

View from above orbital plane
View from above orbital plane
View from above satellite
View from above satellite

Ground track
Ground track

The orbit data is extracted from the following two-line orbital elements,

1 28895U 05043F   19347.86312140 +.00000106 +00000-0 +29101-4 0  9997
2 28895 097.9834 124.7697 0017587 146.1167 214.1163 14.63719982753311
Epoch (UTC): 13 December 2019 20:42:53
Eccentricity: 0.0017587
inclination: 97.9834°
perigee height: 669 km
apogee height: 693 km
right ascension of ascending node: 124.7697°
argument of perigee: 146.1167°
revolutions per day: 14.63719982
mean anomaly at epoch: 214.1163°
orbit number at epoch: 75331

The dashed part of the orbit path shows where the satellite is in the earth's shadow,  

DLR